Powrót do katalogu

DMSP 5D-2 F13 DEB

AktywnySSO
NORAD 40526·DEBRIS·🇺🇸 United States

Wystrzelony Mar 24, 1995 z Vandenberg Space Force Base

Loading…

Następne Przeloty (najbliższe 24 godziny)

TLE

ŚwieżeSource: Space-Track

Epoka: Sep 14, 2026, 08:31 UTC

1 40526U 95015DN  26257.35536394  .00003489  00000-0  95329-3 0  9992
2 40526  98.6102 304.7009 0023327  38.6099 321.6756 14.47752491598220

Śledź DMSP 5D-2 F13 DEB w czasie rzeczywistym z AllMySat

Download on the App Store